User: anonymous   Login
Location: Balaclava NSW 2575, Australia
(34.4510°S, 150.4953°E)
Time: 16:09:15
(UTC+10:00)
Language:

Envisat - Orbit

View from above orbital plane
View from above orbital plane
View from above satellite
View from above satellite

Ground track
Ground track

The orbit data is extracted from the following two-line orbital elements,

1 27386U 02009A   21169.44324913  .00000050  00000-0  30003-4 0  9991
2 27386  98.1484 163.4500 0001274  90.6172  83.5632 14.38030303 11149
Epoch (UTC): 18 June 2021 10:38:16
Eccentricity: 0.0001274
inclination: 98.1484°
perigee height: 764 km
apogee height: 766 km
right ascension of ascending node: 163.4500°
argument of perigee: 90.6172°
revolutions per day: 14.38030303
mean anomaly at epoch: 83.5632°
orbit number at epoch: 1114

The dashed part of the orbit path shows where the satellite is in the earth's shadow,  

DLR